Torna al catalogo

ARIANE 44L DEB

SPELDA

AttivoHEO
NORAD 20718·DEBRIS·🇫🇷 France

Lanciato Jul 24, 1990 da Guiana Space Centre

Loading…

Prossimi Passaggi (prossime 24 ore)

TLE

AggiornatoSource: Space-Track

Epoca: Sep 14, 2026, 06:01 UTC

1 20718U 90063D   26257.25072534  .00010551  00000-0  41692-2 0  9992
2 20718   5.0873  95.0307 6027542  59.1650 346.6517  3.96244145425561

Traccia ARIANE 44L DEB in tempo reale con AllMySat

Download on the App Store